TimeCDT,TemperatureF,Dew PointF,Humidity,Sea Level PressureIn,VisibilityMPH,Wind Direction,Wind SpeedMPH,Gust SpeedMPH,PrecipitationIn,Events,Conditions,WindDirDegrees,DateUTC
12:15 AM,24.8,21.2,86,30.10,10.0,SSW,3.5,-,N/A,,Clear,200,2013-10-30 05:15:00
12:35 AM,23.0,19.4,86,30.10,10.0,SSW,3.5,-,N/A,,Clear,210,2013-10-30 05:35:00
12:55 AM,23.0,19.4,86,30.09,10.0,SSW,4.6,-,N/A,,Clear,200,2013-10-30 05:55:00
1:15 AM,23.0,19.4,86,30.09,10.0,SSW,4.6,-,N/A,,Clear,200,2013-10-30 06:15:00
1:35 AM,23.0,19.4,86,30.08,10.0,Calm,Calm,-,N/A,,Clear,0,2013-10-30 06:35:00
1:55 AM,23.0,19.4,86,30.08,10.0,Calm,Calm,-,N/A,,Clear,0,2013-10-30 06:55:00
2:15 AM,24.8,21.2,86,30.07,10.0,SSW,4.6,-,N/A,,Clear,210,2013-10-30 07:15:00
2:35 AM,23.0,21.2,93,30.06,10.0,SSW,3.5,-,N/A,,Clear,210,2013-10-30 07:35:00
2:55 AM,23.0,19.4,86,30.05,10.0,SSW,4.6,-,N/A,,Clear,210,2013-10-30 07:55:00
3:15 AM,23.0,19.4,86,30.05,10.0,SSW,5.8,-,N/A,,Partly Cloudy,210,2013-10-30 08:15:00
3:35 AM,24.8,21.2,86,30.04,10.0,SSW,5.8,-,N/A,,Mostly Cloudy,210,2013-10-30 08:35:00
3:55 AM,26.6,23.0,86,30.03,10.0,SSW,4.6,-,N/A,,Overcast,210,2013-10-30 08:55:00
4:15 AM,28.4,23.0,80,30.03,10.0,SSW,4.6,-,N/A,,Overcast,210,2013-10-30 09:15:00
4:35 AM,28.4,24.8,86,30.03,10.0,SSW,3.5,-,N/A,,Overcast,200,2013-10-30 09:35:00
4:55 AM,28.4,24.8,86,30.02,10.0,Calm,Calm,-,N/A,,Overcast,0,2013-10-30 09:55:00
5:15 AM,30.2,24.8,80,30.01,10.0,Calm,Calm,-,N/A,,Overcast,0,2013-10-30 10:15:00
5:35 AM,30.2,24.8,80,30.01,10.0,South,3.5,-,N/A,,Overcast,180,2013-10-30 10:35:00
5:55 AM,30.2,26.6,86,30.01,10.0,South,4.6,-,N/A,,Overcast,180,2013-10-30 10:55:00
6:15 AM,32.0,26.6,80,29.99,10.0,South,3.5,-,N/A,,Overcast,170,2013-10-30 11:15:00
6:35 AM,32.0,26.6,80,29.98,10.0,SSE,3.5,-,N/A,,Overcast,160,2013-10-30 11:35:00
6:55 AM,32.0,26.6,80,29.98,10.0,SSE,4.6,-,N/A,,Overcast,160,2013-10-30 11:55:00
7:15 AM,32.0,24.8,75,29.97,10.0,South,4.6,-,N/A,,Overcast,180,2013-10-30 12:15:00
7:35 AM,32.0,26.6,80,29.97,10.0,South,5.8,-,N/A,,Overcast,170,2013-10-30 12:35:00
7:55 AM,32.0,26.6,80,29.96,10.0,South,5.8,-,N/A,,Overcast,180,2013-10-30 12:55:00
8:15 AM,32.0,26.6,80,29.95,10.0,South,5.8,-,N/A,,Overcast,170,2013-10-30 13:15:00
8:35 AM,32.0,26.6,80,29.95,10.0,South,4.6,-,N/A,,Overcast,190,2013-10-30 13:35:00
9:15 AM,32.0,26.6,80,29.96,10.0,South,4.6,-,N/A,,Overcast,180,2013-10-30 14:15:00
9:35 AM,32.0,26.6,80,29.95,10.0,South,6.9,-,N/A,,Overcast,180,2013-10-30 14:35:00
9:55 AM,33.8,26.6,75,29.95,10.0,South,6.9,-,N/A,,Overcast,190,2013-10-30 14:55:00
10:15 AM,35.6,26.6,70,29.94,10.0,SSW,8.1,-,N/A,,Overcast,200,2013-10-30 15:15:00
10:35 AM,35.6,26.6,70,29.93,10.0,SSW,5.8,-,N/A,,Overcast,200,2013-10-30 15:35:00
10:55 AM,35.6,26.6,70,29.93,10.0,South,8.1,-,N/A,,Overcast,190,2013-10-30 15:55:00
11:15 AM,35.6,26.6,70,29.92,10.0,South,8.1,-,N/A,,Overcast,190,2013-10-30 16:15:00
11:35 AM,37.4,26.6,65,29.92,10.0,South,6.9,-,N/A,,Overcast,170,2013-10-30 16:35:00
11:55 AM,37.4,26.6,65,29.92,10.0,South,8.1,-,N/A,,Overcast,190,2013-10-30 16:55:00
12:15 PM,39.2,28.4,65,29.91,10.0,SSW,8.1,-,N/A,,Overcast,200,2013-10-30 17:15:00
12:35 PM,39.2,26.6,61,29.90,10.0,South,13.8,-,N/A,,Overcast,180,2013-10-30 17:35:00
12:55 PM,39.2,28.4,65,29.89,10.0,SSW,10.4,-,N/A,,Overcast,210,2013-10-30 17:55:00
1:15 PM,41.0,28.4,61,29.88,10.0,SSW,9.2,-,N/A,,Overcast,200,2013-10-30 18:15:00
1:35 PM,41.0,28.4,61,29.86,10.0,South,9.2,-,N/A,,Overcast,190,2013-10-30 18:35:00
1:55 PM,41.0,28.4,61,29.84,10.0,SSW,6.9,-,N/A,,Overcast,200,2013-10-30 18:55:00
2:15 PM,42.8,30.2,61,29.82,10.0,South,8.1,-,N/A,,Overcast,180,2013-10-30 19:15:00
2:35 PM,41.0,30.2,65,29.81,10.0,South,9.2,-,N/A,,Overcast,190,2013-10-30 19:35:00
2:55 PM,41.0,30.2,65,29.80,10.0,South,9.2,-,N/A,,Overcast,190,2013-10-30 19:55:00
3:15 PM,42.8,30.2,61,29.79,10.0,South,5.8,-,N/A,,Overcast,180,2013-10-30 20:15:00
3:35 PM,44.6,32.0,61,29.78,10.0,SW,9.2,-,N/A,,Overcast,220,2013-10-30 20:35:00
3:55 PM,44.6,32.0,61,29.78,10.0,SSW,5.8,-,N/A,,Overcast,210,2013-10-30 20:55:00
4:15 PM,44.6,32.0,61,29.77,10.0,SSW,6.9,-,N/A,,Overcast,200,2013-10-30 21:15:00
4:35 PM,42.8,32.0,66,29.77,10.0,SSW,8.1,-,N/A,,Overcast,200,2013-10-30 21:35:00
4:55 PM,42.8,32.0,66,29.76,10.0,South,9.2,-,N/A,,Overcast,180,2013-10-30 21:55:00
5:15 PM,42.8,32.0,66,29.75,10.0,South,10.4,-,N/A,,Overcast,190,2013-10-30 22:15:00
5:35 PM,42.8,32.0,66,29.74,10.0,SSW,5.8,-,N/A,,Overcast,200,2013-10-30 22:35:00
5:55 PM,41.0,32.0,70,29.74,10.0,South,6.9,-,N/A,,Overcast,190,2013-10-30 22:55:00
6:15 PM,41.0,32.0,70,29.73,10.0,South,9.2,-,N/A,,Overcast,190,2013-10-30 23:15:00
7:55 PM,39.2,32.0,75,29.70,10.0,South,6.9,-,N/A,,Overcast,190,2013-10-31 00:55:00
8:15 PM,39.2,32.0,75,29.69,10.0,SSW,5.8,-,N/A,,Overcast,200,2013-10-31 01:15:00
8:35 PM,39.2,32.0,75,29.69,10.0,SW,4.6,-,N/A,,Overcast,220,2013-10-31 01:35:00
8:55 PM,39.2,32.0,75,29.69,10.0,SSW,4.6,-,N/A,,Overcast,200,2013-10-31 01:55:00
9:15 PM,39.2,32.0,75,29.69,10.0,South,5.8,-,N/A,,Overcast,190,2013-10-31 02:15:00
9:35 PM,39.2,32.0,75,29.68,10.0,South,6.9,-,N/A,,Overcast,190,2013-10-31 02:35:00
9:55 PM,39.2,32.0,75,29.68,10.0,South,6.9,-,N/A,,Mostly Cloudy,190,2013-10-31 02:55:00
10:15 PM,39.2,32.0,75,29.67,10.0,South,8.1,-,N/A,,Mostly Cloudy,190,2013-10-31 03:15:00
10:35 PM,39.2,32.0,75,29.67,10.0,SSW,6.9,-,N/A,,Mostly Cloudy,200,2013-10-31 03:35:00
10:55 PM,39.2,32.0,75,29.67,9.0,South,8.1,-,N/A,,Mostly Cloudy,190,2013-10-31 03:55:00
11:15 PM,39.2,32.0,75,29.66,10.0,SSW,9.2,-,N/A,,Overcast,200,2013-10-31 04:15:00
11:35 PM,39.2,32.0,75,29.66,10.0,SSW,8.1,-,N/A,,Overcast,210,2013-10-31 04:35:00
11:55 PM,39.2,32.0,75,29.65,10.0,SW,8.1,-,N/A,,Overcast,220,2013-10-31 04:55:00